Flag for Germany Past Weather in Geislingen an der Steige, Baden-Württemberg, Germany — Yesterday and Last 2 Weeks

Now
68 °F

Partly sunny.


Feels Like: 68 °F
Forecast: 56 / 76 °F
Wind: 6 mph from West

Location: Laupheim Airport

Current Time: Jul 27, 2016 at 5:29:43 PM

Latest Report: Jul 27, 2016 at 3:20 PM


Visibility: N/A

Pressure: 30.07 "Hg

Humidity: 88%

Dew Point: 64 °F

Location of Geislingen an der SteigeLocation

Past Weather in Geislingen an der Steige — Graph

°F

Geislingen an der Steige Temperature Yesterday

Maximum temperature yesterday: 81 °F (at 5:20 PM)
Minimum temperature yesterday: 63 °F (at 12:20 AM)
Average temperature yesterday: 69 °F

High & Low Weather Summary for the Past Weeks

 TemperatureHumidityPressure
High88 °F (Jul 20, 6:20 PM)100% (Jul 12, 11:20 PM)30.36 "Hg (Jul 12, 11:20 PM)
Low46 °F (Jul 15, 5:20 AM)29% (Jul 20, 7:20 PM)29.95 "Hg (Jul 13, 12:20 PM)
Average65 °F75%30.13 "Hg
* Reported Jul 12 3:20 PM — Jul 27 3:20 PM, Geislingen an der Steige, Weather by CustomWeather, © 2016

Note: Actual official high and low records may vary slightly from our data, if they occured in-between our weather recording intervals... More about our weather records

Advertising

Geislingen an der Steige Weather History for the Previous 24 Hours

Scroll right to see more
 ConditionsComfort  
Time TempWeatherWind HumidityBarometerVisibility
3:20 PM
Wed, Jul 27
68 °FPartly sunny.6 mph88%30.07 "HgN/A
2:20 PM68 °FSprinkles. Broken clouds.9 mph78%30.07 "HgN/A
1:20 PM72 °FPartly sunny.3 mph69%30.09 "HgN/A
12:20 PM70 °FScattered clouds.6 mph78%30.09 "HgN/A
11:20 AM68 °FBroken clouds.2 mph78%30.12 "HgN/A
10:20 AM68 °FPartly sunny.3 mph83%30.12 "Hg5 mi
9:20 AM66 °FPartly sunny.3 mph88%30.09 "Hg5 mi
8:20 AM64 °FPartly sunny.6 mph88%30.09 "Hg5 mi
7:20 AM63 °FFog.5 mph94%30.09 "Hg3 mi
6:20 AM63 °FFog.5 mph94%30.09 "Hg2 mi
5:20 AM63 °FPassing clouds.2 mph94%30.09 "Hg4 mi
4:20 AM63 °FPassing clouds.1 mph94%30.09 "Hg4 mi
3:20 AM63 °FPartly cloudy.5 mph94%30.09 "Hg4 mi
2:20 AM63 °FPassing clouds.1 mph94%30.09 "HgN/A
1:20 AM64 °FPassing clouds.7 mph94%30.12 "Hg6 mi
12:20 AM64 °FPassing clouds.2 mph94%30.12 "Hg6 mi
11:20 PM
Tue, Jul 26
64 °FPartly cloudy.3 mph94%30.12 "Hg6 mi
10:20 PM66 °FPartly cloudy.3 mph88%30.12 "HgN/A
9:20 PM66 °FSprinkles. Broken clouds.5 mph94%30.15 "HgN/A
8:20 PM70 °FThundershowers. Scattered clouds.3 mph73%30.12 "HgN/A
7:20 PM72 °FThundershowers. Broken clouds.8 mph65%30.12 "HgN/A
6:20 PM75 °FScattered clouds.13 mph69%30.09 "HgN/A
5:20 PM81 °FScattered clouds.2 mph48%30.09 "HgN/A
Weather by CustomWeather, © 2016

See weather overviewHow to use our weather pages